Find Starlink 32610

NORAD ID: 61971 Int'l Des: 2024-210 Owner: SPXS Country: US Constellation: starlink operational
LEOCIRCULAR

Current View

Loading 3D Globe...

About Starlink 32610

Starlink 32610 (NORAD 61971) is a starlink constellation satellite (v2 mini) launched Nov 14, 2024 by SPXS of US. It operates in LEO, CIRCULAR orbit with a mass of 730.00 kg.

Upcoming Passes

Passes for default location (London). Set your location on the main map for personalized predictions.

Altitude History

Loading altitude history...

Two-Line Element Set

1 61971U 24210N 26264.04011532 .00009234 00000-0 34463-3 0 9990
2 61971 43.0004 156.8122 0001182 278.3690 81.7028 15.27584281104799
Epoch: Sep 21, 2026 • Age: 50 hours

Current Status

Altitude 491.4 km
Apogee / Perigee N/A
Velocity 7.62 km/s
Sub-Earth Point -32.26°S, 33.79°W
Launch Date Nov 14, 2024
Age 1.8 years
Type internet

Technical Details

Classification Payload
Mass 730.00 kg
Dry Mass 700.00 kg
Length 0.30 m
Span 29.00 m
Shape ? Box + pan
Manufacturer SPXS
Bus Type Starlink V2M
Phase Status In Orbit
Owner/State SPXS/US

Most Searched